Location: Lynch Observatory
(39.9540°N, 75.1861°W)
Time: 12:23:16
(UTC-04:00)

UWE-3 - Pass Details

Date: 03 May 2024
Orbit: 569 x 652 km, 97.8° (Epoch: 25 May)

Event Time Altitude Azimuth Distance (km) Brightness Sun altitude
Rises 04:33:33 0° 357° (N) 2,913 ? -15.0°
Reaches altitude 10° 04:36:09 10° 341° (NNW) 2,017 ? -14.6°
Maximum altitude 04:39:26 21° 292° (WNW) 1,432 ? -14.0°
Enters shadow 04:40:59 18° 265° (W) 1,587 ? -13.8°
